Voltar ao catálogo

ATS 3

AtivoComunicaçõesGEO
NORAD 3029·PAYLOAD·🇺🇸 United States

Lançado Nov 5, 1967 de Cape Canaveral Space Force Station

Loading…

TLE

AtualizadoSource: Space-Track

Época: Sep 14, 2026, 13:18 UTC

1 03029U 67111A   26257.55434413 -.00000096  00000-0  00000-0 0  9997
2 03029   3.4010  77.2720 0015297  40.2812 330.4153  1.00271924215531

Acompanhe ATS 3 em tempo real com AllMySat

Download on the App Store